Regional Weather Roundup
Issued by NWS State College, PA

Home | Current Version | Previous Version | Graphics & Text | Print | Product List | Glossary On
Versions: 1 2 3 4 5 6 7 8 9 10 11 12 13 14 15 16 17 18 19 20 21 22 23 24 25 26 27 28 29 30 31 32 33 34 35 36 37 38 39 40 41 42 43 44 45 46 47 48 49 50
000
ASUS41 KCTP 312003
RWRCTP

REGIONAL WEATHER ROUNDUP
NATIONAL WEATHER SERVICE STATE COLLEGE PA
400 PM EDT TUE MAY 31 2016

Note: "fair" indicates few or no clouds below 12,000 feet with no
significant weather and/or obstructions to visibility.

* = STATION THAT DOES NOT REPORT PRECIPITATION /E.G. RAIN...SNOW...ETC/
    THUNDER OR FOG.

PAZ002>004-007>009-013>016-020>023-029>032-312100-
WESTERN PENNSYLVANIA

CITY           SKY/WX    TMP DP  RH WIND       PRES   REMARKS
ERIE           CLOUDY    81  47  30 N7        30.02F
MEADVILLE      MOSUNNY   76  56  49 N8        30.03S
FRANKLIN*      MOSUNNY   79  54  41 NW5       30.04S
NEW CASTLE     FAIR      85  56  37 CALM      30.00S
BEAVER COUNTY  PTSUNNY   82  57  42 NW5       30.00S
BUTLER*        MOSUNNY   82  57  42 CALM      30.02S
PITTSBURGH INT CLOUDY    86  54  33 W7        29.98F
PITTSBURGH     SUNNY     84  55  36 VRB3      29.98F
INDIANA*       MOSUNNY   81  54  39 CALM      30.04R
LATROBE        PTSUNNY   82  55  39 CALM      30.00F
WASHINGTON CO* PTSUNNY   82  57  42 CALM      30.00S
$$

PAZ004>006-010>012-017>019-024>028-033>037-041-042-045-046-049>053-312100-
CENTRAL PENNSYLVANIA

CITY           SKY/WX    TMP DP  RH WIND       PRES   REMARKS
BRADFORD       CLOUDY    77  52  41 N10       30.04S
DUBOIS         CLOUDY    79  51  37 SW5       30.02F
CLEARFIELD     CLOUDY    84  49  29 NW12      30.01S
JOHNSTOWN      SUNNY     79  46  31 NW5       30.04F
ALTOONA        CLOUDY    83  47  28 N8        30.00F
STATE COLLEGE  NOT AVBL
WILLIAMSPORT   MOSUNNY   84  53  34 SW7       29.93F
SELINSGROVE    SUNNY     83  58  42 W3        29.96F
FT INDIANTOWN  MOSUNNY   85  53  33 NE5       29.96S
CAPITAL CITY   SUNNY     85  52  32 W8        29.95F
HARRISBURG     MOSUNNY   86  53  32 NW9       29.94F
YORK           PTSUNNY   83  57  41 CALM      29.96F
$$

PAZ038>040-043-044-047-048-054-055-060>062-067>071-312100-
EASTERN PENNSYLVANIA

CITY           SKY/WX    TMP DP  RH WIND       PRES   REMARKS
SCRANTON       MOSUNNY   85  54  34 N13       29.96F
MOUNT POCONO   NOT AVBL
ALLENTOWN      MOSUNNY   86  51  29 W10       29.93F
QUAKERTOWN*    CLEAR     84  55  37 CALM      29.95F
READING        MOSUNNY   85  53  33 N5        29.94F
LANCASTER      MOSUNNY   86  53  32 N5        29.95F
COATESVILLE    PTCLDY    81  52  36 N3        29.97F
POTTSTOWN      PTSUNNY   84  56  38 NE5       29.95F
BLUE BELL      SUNNY     82  54  36 CALM      29.93F
DOYLESTOWN     SUNNY     85  49  28 N8        29.93F
WILLOW GROVE   NOT AVBL
NORTH PHILA    SUNNY     87  54  32 CALM      29.93F
PHILADELPHIA   MOSUNNY   87  51  28 VRB6      29.93F
$$



USA.gov is the U.S. government's official web portal to all federal, state and local government web resources and services.